This is the latest recevied weather packets stored in our database for station/object SP5XSL-4. If no packets are shown the sender has not sent any weather packets the latest 1 day(s).
| Time | Temp. | Humidity | Pressure | Rain* | Wind** | Luminosity | Snow |
|---|---|---|---|---|---|---|---|
| 1777978654 | 21.11° C | - | 1015.3 hPa | - | 3.13 m/s, 88° | - | - |
| 1777978144 | 20.56° C | - | 1015.6 hPa | - | 3.13 m/s, 45° | - | - |
| 1777977553 | 20.56° C | - | 1015.6 hPa | - | 1.79 m/s, 109° | - | - |
| 1777976984 | 20.56° C | - | 1015.7 hPa | - | 3.13 m/s, 98° | - | - |
| 1777976306 | 20.56° C | - | 1015.7 hPa | - | 1.79 m/s, 37° | - | - |
| 1777975644 | 20° C | - | 1016 hPa | - | 1.79 m/s, 41° | - | - |
| 1777975110 | 20° C | - | 1016.2 hPa | - | 3.13 m/s, 87° | - | - |
| 1777974577 | 20° C | - | 1016.2 hPa | - | 3.13 m/s, 113° | - | - |
| 1777973964 | 20° C | - | 1016.4 hPa | - | 4.02 m/s, 66° | - | - |
| 1777973449 | 20° C | - | 1016.6 hPa | - | 4.92 m/s, 106° | - | - |
| 1777972809 | 19.44° C | - | 1016.6 hPa | - | 4.92 m/s, 336° | - | - |
| 1777972244 | 19.44° C | - | 1016.4 hPa | - | 3.13 m/s, 3° | - | - |
| 1777971639 | 18.89° C | - | 1016.5 hPa | - | 3.13 m/s, 71° | - | - |
| 1777971022 | 19.44° C | - | 1016.3 hPa | - | 0 m/s | - | - |
| 1777970474 | 18.89° C | - | 1016.6 hPa | - | 1.79 m/s, 128° | - | - |
| 1777969752 | 18.33° C | - | 1016.8 hPa | - | 1.79 m/s, 95° | - | - |
| 1777969189 | 18.33° C | - | 1016.6 hPa | - | 0.89 m/s, 108° | - | - |
| 1777968593 | 18.33° C | - | 1016.9 hPa | - | 0.89 m/s, 113° | - | - |
| 1777968040 | 18.33° C | - | 1016.9 hPa | - | 4.02 m/s, 72° | - | - |
| 1777967492 | 17.78° C | - | 1016.8 hPa | - | 4.92 m/s, 73° | - | - |
| 1777966989 | 17.78° C | - | 1016.9 hPa | - | 9.83 m/s, 14° | - | - |
| 1777966387 | 17.78° C | - | 1016.7 hPa | - | 4.02 m/s, 103° | - | - |
| 1777965862 | 17.22° C | - | 1017.1 hPa | - | 5.81 m/s, 29° | - | - |
| 1777965342 | 16.67° C | - | 1016.8 hPa | - | 3.13 m/s, 34° | - | - |
| 1777964822 | 16.67° C | - | 1017.2 hPa | - | 3.13 m/s, 47° | - | - |
* Rain since midnight (hover to see other rain measurements)
** Current wind speed in m/s (hover to see current wind gust speed)